This is the latest recevied weather packets stored in our database for station/object N6RDS. If no packets are shown the sender has not sent any weather packets the latest 10 day(s).
| Time | Temp. | Humidity | Pressure | Rain* | Wind** | Luminosity | Snow |
|---|---|---|---|---|---|---|---|
| 1777774039 | 15.56° C | 26% | 1025.6 hPa | 0 mm | - | 4 W/m² | - |
| 1777773736 | 16.11° C | 27% | 1025.8 hPa | 0 mm | - | 7 W/m² | - |
| 1777773433 | 16.11° C | 26% | 1025.6 hPa | 0 mm | - | 9 W/m² | - |
| 1777773130 | 16.67° C | 27% | 1026 hPa | 0 mm | - | 12 W/m² | - |
| 1777772825 | 16.67° C | 27% | 1025.8 hPa | 0 mm | - | 15 W/m² | - |
| 1777772524 | 16.67° C | 26% | 1025.5 hPa | 0 mm | - | 18 W/m² | - |
| 1777772220 | 17.22° C | 26% | 1025.8 hPa | 0 mm | - | 20 W/m² | - |
| 1777771918 | 17.22° C | 28% | 1025.8 hPa | 0 mm | - | 27 W/m² | - |
| 1777771615 | 17.78° C | 27% | 1025.9 hPa | 0 mm | - | 30 W/m² | - |
| 1777771312 | 17.78° C | 28% | 1025.8 hPa | 0 mm | - | 26 W/m² | - |
| 1777771008 | 17.22° C | 26% | 1025.5 hPa | 0 mm | - | 25 W/m² | - |
| 1777770706 | 17.78° C | 26% | 1025.4 hPa | 0 mm | - | 28 W/m² | - |
| 1777770402 | 17.78° C | 26% | 1025.8 hPa | 0 mm | - | 35 W/m² | - |
| 1777770099 | 17.22° C | 26% | 1025.5 hPa | 0 mm | - | 42 W/m² | - |
| 1777769796 | 17.22° C | 26% | 1025.8 hPa | 0 mm | - | 48 W/m² | - |
| 1777769493 | 17.78° C | 25% | 1025.8 hPa | 0 mm | - | 42 W/m² | - |
| 1777769189 | 17.78° C | 26% | 1025.4 hPa | 0 mm | - | 48 W/m² | - |
| 1777768888 | 17.78° C | 25% | 1025.5 hPa | 0 mm | - | 55 W/m² | - |
| 1777768585 | 17.78° C | 26% | 1025.6 hPa | 0 mm | - | 60 W/m² | - |
| 1777768282 | 17.78° C | 27% | 1025.6 hPa | 0 mm | - | 58 W/m² | - |
| 1777767979 | 17.78° C | 27% | 1025.6 hPa | 0 mm | - | 61 W/m² | - |
| 1777767675 | 18.33° C | 26% | 1025.5 hPa | 0 mm | - | 66 W/m² | - |
| 1777767371 | 18.33° C | 26% | 1025.6 hPa | 0 mm | - | 64 W/m² | - |
| 1777767069 | 18.33° C | 26% | 1025.8 hPa | 0 mm | - | 71 W/m² | - |
| 1777766766 | 18.33° C | 27% | 1025.8 hPa | 0 mm | - | 73 W/m² | - |
* Rain latest hour (hover to see other rain measurements)
** Current wind speed in m/s (hover to see current wind gust speed)